Location: Unspecified
(0.0000°N, 0.0000°E)
Time: 01:57:39
(UTC+02:00)

Cosmos 1125 Rocket - Visible Passes

Search period start: 01 October 2014 00:00
Search period end: 11 October 2014 00:00
Orbit: 760 x 780 km, 74.0° (Epoch: 30 September)

Date Brightness Start Highest point End Pass type
(mag) Time Alt. Az. Time Alt. Az. Time Alt. Az.
09 Oct 5.3 21:36:12 10° S 21:37:41 19° S 21:37:41 19° S visible
10 Oct 4.9 21:00:39 10° SSE 21:03:11 21° SE 21:03:11 21° SE visible
10 Oct 6.4 22:43:09 10° WSW 22:43:35 12° WSW 22:43:35 12° WSW visible
